Zurück zum Katalog

COSMOS 1823 DEB

AktivLEO
NORAD 39811·DEBRIS·🇷🇺 Russia

Gestartet Feb 20, 1987 von Plesetsk Cosmodrome

Loading…

Nächste Überflüge (nächste 24 Stunden)

TLE

VeraltetSource: Space-Track

Epoche: Aug 30, 2026, 17:48 UTC

1 39811U 87020EK  26242.74218524  .00000039  00000-0  38750-3 0  9996
2 39811  73.6254 244.2961 0035035 355.1202 182.2457 12.46445924 32008

Verfolge COSMOS 1823 DEB in Echtzeit mit AllMySat

Download on the App Store